Regional Weather Roundup
Issued by NWS Kansas City/Pleasant Hill, MO

Home | Current Version | Previous Version | Text Only | Print | Product List | Glossary On
Versions: 1 2 3 4 5 6 7 8 9 10 11 12 13 14 15 16 17 18 19 20 21 22 23 24 25 26 27 28 29 30 31 32 33 34 35 36 37 38 39 40 41 42 43 44 45 46 47 48 49 50
000
ASUS43 KEAX 211504
RWREAX

WEATHER ROUNDUP FOR EASTERN KANSAS AND NORTHWEST MISSOURI
NATIONAL WEATHER SERVICE KANSAS CITY/PLEASANT HILL MO
1000 AM CDT SUN SEP 21 2014

KSZ040-057-103>105-MOZ028-029-037-043-211600-
...KANSAS CITY METROPOLITAN AREA...

CITY           SKY/WX    TMP DP  RH WIND       PRES   REMARKS
K.C. INTL      SUNNY     67  56  67 NW9       30.18R
K.C. DOWNTOWN  SUNNY     69  55  60 NW5       30.17R
LEES SUMMIT    SUNNY     69  52  54 NW9       30.17R
OLATHE - IXD   SUNNY     68  55  63 N9        30.18R
OLATHE - OJC   SUNNY     70  51  51 NW8       30.17R
LAWRENCE       SUNNY     68  58  70 W6        30.18S

$$

MOZ001>008-011>017-020>025-030>033-038>040-044>046-053-054-211600-
...NORTHERN AND CENTRAL MISSOURI...

CITY           SKY/WX    TMP DP  RH WIND       PRES   REMARKS
ST. JOSEPH     SUNNY     67  54  63 N9        30.18R
MOSBY          SUNNY     66  52  59 NW8       30.16R
WHITEMAN AFB   SUNNY     69  55  61 NW9       30.14R
CLINTON        SUNNY     70  54  56 N8        30.15R
SEDALIA        SUNNY     69  52  54 NW8       30.14R
WARSAW         NOT AVBL
MARSHALL       SUNNY     70  55  60 NW13G22   30.14S
CHILLICOTHE      N/A     68  53  58 NW8       30.15R
MOBERLY        SUNNY     68  52  56 W10       30.12R
KIRKSVILLE     SUNNY     65  51  60 W13       30.11R

$$

MOZ041-047>049-056>058-063>065-088>090-097-211600-
...EASTERN AND SOUTHERN MISSOURI...

CITY           SKY/WX    TMP DP  RH WIND       PRES   REMARKS
ST. LOUIS INTL SUNNY     72  53  51 NW7       30.05R
SPIRIT OF STL  SUNNY     69  55  60 W8        30.05R
COLUMBIA       SUNNY     69  53  56 NW12      30.11R
JEFFERSON CITY SUNNY     70  52  52 NW6       30.10R
MEXICO         SUNNY     72  57  60 NW15      30.09R
ROLLA          SUNNY     67  52  58 NW6       30.10R
LEBANON        SUNNY     70  48  46 NE6       30.14R
OSAGE BEACH    SUNNY     70  50  49 N3        30.13R
SPRINGFIELD    SUNNY     71  52  50 NE16      30.14R
BRANSON        PTSUNNY   73  68  83 NW10      30.12R
NEVADA         SUNNY     70  55  60 N5        30.17R
JOPLIN         SUNNY     71  50  47 NE14      30.15R
WEST PLAINS    MOSUNNY   74  62  66 N12G23    30.11R

$$

IAZ060-094-KSZ022-034>040-054-083-096-NEZ052-066-093-211600-
...KANSAS...SOUTHEAST NEBRASKA AND IOWA...

CITY           SKY/WX    TMP DP  RH WIND       PRES   REMARKS
TOPEKA         SUNNY     70  60  70 NW7       30.20R
MANHATTAN      SUNNY     70  53  54 N6        30.22R
EMPORIA        SUNNY     69  55  60 N6        30.20R
CHANUTE        SUNNY     72  51  47 NE13G21   30.17R
WICHITA        MOSUNNY   73  49  42 NE13      30.21R
OMAHA          SUNNY     63  47  55 NW15      30.22R
LINCOLN        SUNNY     65  46  50 NW14      30.25R
FALLS CITY     SUNNY     66  51  58 NW10      30.19R
LAMONI         SUNNY     63  51  65 NW16      30.14R
DES MOINES     SUNNY     64  48  56 N21G29    30.11R

$$




USA.gov is the U.S. government's official web portal to all federal, state and local government web resources and services.